Miscellaneous Local Product
Issued by NWS Hastings, NE

Home | Current Version | Previous Version | Text Only | Print | Product List | Glossary Off
Versions: 1 2 3 4 5 6 7 8 9 10 11 12 13 14 15 16 17 18 19 20 21 22 23 24 25 26 27 28 29 30 31 32 33 34 35 36 37 38 39 40 41 42 43 44 45 46 47 48 49 50

000
AXUS43 KGID 061202
MISGRI

GID CWA HOURLY WEATHER ROUNDUP
NATIONAL WEATHER SERVICE HASTINGS NE
700 AM CDT WED MAY 06 2015

NOTE: "FAIR" INDICATES FEW OR NO CLOUDS BELOW 12,000 FEET WITH NO
SIGNIFICANT WEATHER AND/OR OBSTRUCTIONS TO VISIBILITY.

...SOUTH CENTRAL NEBRASKA...

CITY           SKY/WX    TMP DP  RH WIND       PRES   REMARKS
GRAND ISLAND   CLOUDY    61  57  87 SE9G17    29.79F
HASTINGS       CLOUDY    60  57  89 SE13      29.77F
KEARNEY        CLOUDY    61  57  88 SE14      29.76F
ORD            CLOUDY    60  57  89 SE8       29.77F
YORK           LGT RAIN  61  61 100 SE16      29.79F
AURORA         RAIN      60  60 100 SE9       29.79F
LEXINGTON      CLOUDY    60  58  93 SE12      29.74F
HOLDREGE       CLOUDY    60  57  92 SE14      29.74F
HEBRON         RAIN      61  58  90 SE9       29.78S

...NEBRASKA PANHANDLE...

CITY           SKY/WX    TMP DP  RH WIND       PRES   REMARKS
CHADRON        LGT RAIN  53  52  96 NE6       29.69F FOG
ALLIANCE       CLOUDY    53  51  93 SE17      29.69R
SCOTTSBLUFF    CLOUDY    54  53  97 E6        29.68S
SIDNEY         FOG       50  50 100 SE14      29.67F VSB 1/2

...WESTERN AND NORTH CENTRAL NEBRASKA...

CITY           SKY/WX    TMP DP  RH WIND       PRES   REMARKS
VALENTINE      CLOUDY    58  56  93 SE14      29.75S
AINSWORTH      CLOUDY    59  58  98 SE10      29.76F FOG
ONEILL         CLOUDY    62  60  94 SE8       29.81F
BROKEN BOW     LGT RAIN  60  58  92 SE14      29.75F
IMPERIAL       CLOUDY    53  50  89 SE10      29.70S
NORTH PLATTE   LGT RAIN  58  56  93 SE8       29.72S
MCCOOK         CLOUDY    60  58  92 S8        29.71F

...EASTERN NEBRASKA...

CITY           SKY/WX    TMP DP  RH WIND       PRES   REMARKS
NORFOLK        LGT RAIN  62  60  93 SE13      29.84S
SO SIOUX CITY  CLOUDY    63  58  83 SE12      29.89S
TEKAMAH        LGT RAIN  63  60  90 SE13      29.89S
COLUMBUS       CLOUDY    61  55  82 E10       29.83F
ALBION         CLOUDY    61  59  94 SE12      29.82S
OMAHA EPPLEY   LGT RAIN  64  60  87 SE14      29.89S
OFFUTT AFB     LGT RAIN  63  61  94 E15       29.88F
MILLARD        RAIN      64  60  89 SE10      29.87F
LINCOLN        LGT RAIN  63  60  90 SE18G28   29.82F
NEBRASKA CITY  LGT RAIN  62  61  97 SE14G21   29.88F
BEATRICE       CLOUDY    62  60  91 SE20G28   29.80F
FALLS CITY     CLOUDY    64  58  80 SE12      29.87F

...NORTHERN KANSAS...

CITY           SKY/WX    TMP DP  RH WIND       PRES   REMARKS
GOODLAND       CLOUDY    51  50  96 S13       29.71F
HILL CITY      MOCLDY    61  58  90 S12       29.73S
NORTON         CLOUDY    59  55  88 SE9       29.72S
PHILLIPSBURG   LGT RAIN  63  63 100 SE9G16    29.74S
SMITH CENTER   LGT RAIN  59  57  94 SE13      29.77S
HAYS           CLOUDY    61  54  77 S13       29.75R
RUSSELL        CLOUDY    60  59  96 S20       29.75R
CONCORDIA      CLOUDY    60  58  92 S9        29.79S
SALINA         CLOUDY    62  59  90 S14       29.81R
TOPEKA         CLOUDY    65  60  84 SE16G25   29.87R



USA.gov is the U.S. government's official web portal to all federal, state and local government web resources and services.